Victoria, British Columbia

3:48 AM PDT on May 24, 2018 (GMT -0700)
Victoria International

Weather History for CYYJ - August, 2013

Change the Weather History Date:

Tuesday, August 6, 2013

  Actual Average Record
Temperature  
Mean Temperature 60 °F -  
Max Temperature 69 °F 70 °F 82 °F (2008)
Min Temperature 50 °F 50 °F 50 °F (1996)
Degree Days  
Heating Degree Days 6    
Growing Degree Days 10 (Base 50)    
Moisture  
Dew Point 52 °F    
Average Humidity 75    
Maximum Humidity 94    
Minimum Humidity 50    
Precipitation  
Precipitation 0.00 in 0.03 in - ()
Sea Level Pressure  
Sea Level Pressure 29.97 in    
Wind  
Wind Speed 4 mph ()    
Max Wind Speed 13 mph    
Max Gust Speed -    
Visibility 19.8 miles    
Events      
Averages and records for this station are not official NWS values.
T = Trace of Precipitation, MM = Missing Value Source: Averaged Metar Reports

Daily Weather History Graph

Daily Weather History Graph

Search for Another Location

Airport or City:

Astronomy

Aug. 06, 2013 Rise Set
Actual Time 5:54 AM PDT 8:43 PM PDT
Civil Twilight 5:18 AM PDT 9:19 PM PDT
Nautical Twilight 4:32 AM PDT 10:05 PM PDT
Astronomical Twilight 3:36 AM PDT 11:00 PM PDT
Moon 5:57 AM PDT (8/6) 8:12 PM PDT (8/6)
Length of Visible Light 16h 00m
Length of Day
14h 48m
Waning Crescent, 0% of the Moon is Illuminated
Aug 6
Waning Crescent
Aug 6
New
Aug 14
First Quarter
Aug 20
Full
Aug 28
Last Quarter

Hourly Weather History & Observations

Time (PDT) Temp. Dew Point Humidity Pressure Visibility Wind Dir Wind Speed Gust Speed Precip Events Conditions
12:00 AM 55.4 °F 50.0 °F 82% 29.95 in 30.0 mi SE 3.5 mph - N/A   Clear
1:00 AM 55.4 °F 51.8 °F 88% 29.96 in 30.0 mi Calm Calm - N/A   Clear
2:00 AM 55.4 °F 51.8 °F 88% 29.96 in 30.0 mi ESE 2.3 mph - N/A   Clear
3:00 AM 53.6 °F 50.0 °F 88% 29.97 in 30.0 mi ESE 2.3 mph - N/A   Clear
4:00 AM 53.6 °F 51.8 °F 94% 29.97 in 20.0 mi ESE 3.5 mph - N/A   Partly Cloudy
5:00 AM 53 °F 51 °F 89% 29.97 in 19 mi SE 4.6 mph - -   Scattered Clouds
5:00 AM 53.6 °F 50.0 °F 88% 29.97 in 20.0 mi SE 4.6 mph - N/A   Partly Cloudy
6:00 AM 51.8 °F 50.0 °F 94% 29.98 in 20.0 mi Calm Calm - N/A   Partly Cloudy
7:00 AM 53.6 °F 51.8 °F 94% 29.99 in 20.0 mi East 3.5 mph - N/A   Partly Cloudy
8:00 AM 57.2 °F 51.8 °F 82% 30.01 in 20.0 mi SE 4.6 mph - N/A   Partly Cloudy
9:00 AM 59.0 °F 51.8 °F 77% 30.01 in 30.0 mi East 4.6 mph - N/A   Partly Cloudy
10:00 AM 60.8 °F 51.8 °F 72% 30.01 in 30.0 mi SE 5.8 mph - N/A   Partly Cloudy
11:00 AM 61 °F 52 °F 64% 30.01 in 28 mi ESE 8.1 mph - -   Clear
11:00 AM 60.8 °F 51.8 °F 72% 30.01 in 30.0 mi ESE 9.2 mph - N/A   Partly Cloudy
12:00 PM 64.4 °F 53.6 °F 68% 30.01 in 30.0 mi SE 8.1 mph - N/A   Partly Cloudy
1:00 PM 66.2 °F 53.6 °F 64% 30.00 in 30.0 mi ESE 8.1 mph - N/A   Partly Cloudy
2:00 PM 68.0 °F 53.6 °F 60% 29.99 in 30.0 mi SE 8.1 mph - N/A   Partly Cloudy
3:00 PM 68.0 °F 53.6 °F 60% 29.99 in 30.0 mi ESE 10.4 mph - N/A   Partly Cloudy
4:00 PM 68.0 °F 53.6 °F 60% 29.97 in 30.0 mi SE 10.4 mph - N/A   Partly Cloudy
5:00 PM 68 °F 54 °F 50% 29.95 in 28 mi ESE 10.4 mph - -   Clear
5:00 PM 68.0 °F 53.6 °F 60% 29.95 in 30.0 mi ESE 10.4 mph - N/A   Partly Cloudy
6:00 PM 68.0 °F 53.6 °F 60% 29.94 in 30.0 mi East 12.7 mph - N/A   Partly Cloudy
7:00 PM 66.2 °F 53.6 °F 64% 29.92 in 30.0 mi East 6.9 mph - N/A   Partly Cloudy
8:00 PM 64.4 °F 53.6 °F 68% 29.92 in 30.0 mi ESE 2.3 mph - N/A   Partly Cloudy
9:00 PM 60.8 °F 53.6 °F 77% 29.93 in 30.0 mi Calm Calm - N/A   Partly Cloudy
10:00 PM 60.8 °F 53.6 °F 77% 29.94 in 30.0 mi Calm Calm - N/A   Partly Cloudy
11:00 PM 56 °F 52 °F 81% 29.94 in 28 mi East 2.3 mph - -   Clear
11:00 PM 55.4 °F 51.8 °F 88% 29.94 in 30.0 mi ESE 2.3 mph - N/A   Partly Cloudy